Location: Asheville, NC
(35.6000°N, 82.5500°W)
Time: 03:26:46
(UTC-04:00)

XW-2F - Pass Details

Date: 09 March 2018
Orbit: 505 x 527 km, 97.5° (Epoch: 19 June)

Event Time Altitude Azimuth Distance (km) Brightness Sun altitude
Rises 06:18:17 0° 17° (NNE) 2,648 ? -7.1°
Reaches altitude 10° 06:20:26 10° 23° (NNE) 1,759 ? -6.7°
Maximum altitude 06:24:07 50° 99° (E) 671 ? -5.9°
Drops below altitude 10° 06:27:49 10° 176° (S) 1,756 ? -5.2°
Sets 06:29:57 0° 182° (S) 2,643 ? -4.8°
